User: anonymous   Login
Location: Unspecified
(0.0000°N, 0.0000°E)
Time: 02:21:07
(UTC+00:00)
Language:

MUOS 5 - Orbit

View from above orbital plane
View from above orbital plane
View from above satellite
View from above satellite

Ground track
Ground track

The orbit data is extracted from the following two-line orbital elements,

1 41622U 16041A   23081.48292281 -.00000171  00000-0  00000+0 0  9996
2 41622   4.9576 298.9308 0192640 242.6784  66.8992  1.00270981 25209
Epoch (UTC): 22 March 2023 11:35:24
Eccentricity: 0.0192640
inclination: 4.9576°
perigee height: 34974 km
apogee height: 36599 km
right ascension of ascending node: 298.9308°
argument of perigee: 242.6784°
revolutions per day: 1.00270981
mean anomaly at epoch: 66.8992°
orbit number at epoch: 2520

The dashed part of the orbit path shows where the satellite is in the earth's shadow,  

DLR